Moose Lake, MN

1:27 AM CDT on March 30, 2017 (GMT -0500)
Moose Lake-Carlton County

Weather History for KMZH - January, 2013

Change the Weather History Date:

Saturday, January 19, 2013

  Actual Average Record
Temperature  
Mean Temperature 17 °F -  
Max Temperature 33 °F 20 °F 46 °F (2017)
Min Temperature 1 °F -2 °F -38 °F (1970)
Degree Days  
Heating Degree Days 48    
Moisture  
Dew Point 4 °F    
Average Humidity 62    
Maximum Humidity 80    
Minimum Humidity 41    
Precipitation  
Precipitation 0.00 in - - ()
Sea Level Pressure  
Sea Level Pressure 29.76 in    
Wind  
Wind Speed 6 mph (WNW)    
Max Wind Speed 23 mph    
Max Gust Speed 36 mph    
Visibility 9 miles    
Events      
Averages and records for this station are not official NWS values.
T = Trace of Precipitation, MM = Missing Value Source: NWS Daily Summary

Daily Weather History Graph

Daily Weather History Graph

Search for Another Location

Airport or City:

Trip Planner

Search our weather history database for the weather conditions in past years. The results will help you decide how hot, cold, wet, or windy it might be!

Date:

Astronomy

Jan. 19, 2013 Rise Set
Actual Time 7:47 AM CST 4:57 PM CST
Civil Twilight 7:14 AM CST 5:30 PM CST
Nautical Twilight 6:37 AM CST 6:07 PM CST
Astronomical Twilight 6:01 AM CST 6:43 PM CST
Moon 11:27 AM CST (1/19) 1:17 AM CST (1/19)
Length of Visible Light 10h 16m
Length of Day
9h 09m
First Quarter, 57% of the Moon is Illuminated
Jan 19
First Quarter
Jan 26
Full
Feb 3
Last Quarter
Feb 10
New
Feb 17
First Quarter

Hourly Weather History & Observations

Time (CST) Temp. Windchill Dew Point Humidity Pressure Visibility Wind Dir Wind Speed Gust Speed Precip Events Conditions
12:11 AM 19.4 °F - 12.2 °F 74% 29.74 in 10.0 mi Calm Calm - N/A   Overcast
12:31 AM 19.4 °F - 12.2 °F 74% 29.73 in 10.0 mi Calm Calm - N/A   Overcast
12:51 AM 19.4 °F - 12.2 °F 74% 29.72 in 10.0 mi Calm Calm - N/A   Overcast
1:11 AM 19.4 °F - 10.4 °F 68% 29.72 in 10.0 mi Calm Calm - N/A   Scattered Clouds
1:31 AM 19.4 °F - 12.2 °F 74% 29.71 in 10.0 mi Calm Calm - N/A   Scattered Clouds
1:51 AM 19.4 °F - 12.2 °F 74% 29.71 in 10.0 mi Calm Calm - N/A   Overcast
2:11 AM 19.4 °F - 12.2 °F 74% 29.70 in 10.0 mi Calm Calm - N/A   Mostly Cloudy
2:32 AM 19.4 °F - 12.2 °F 74% 29.70 in 10.0 mi Calm Calm - N/A   Mostly Cloudy
2:51 AM 19.4 °F 12.8 °F 12.2 °F 74% 29.69 in 10.0 mi NNE 4.6 mph - N/A   Scattered Clouds
3:11 AM 19.4 °F - 12.2 °F 74% 29.69 in 10.0 mi Calm Calm - N/A   Scattered Clouds
3:31 AM 17.6 °F - 12.2 °F 79% 29.67 in 10.0 mi Calm Calm - N/A   Mostly Cloudy
3:51 AM 17.6 °F - 10.4 °F 73% 29.67 in 10.0 mi Calm Calm - N/A   Scattered Clouds
4:12 AM 17.6 °F - 10.4 °F 73% 29.67 in 7.0 mi Calm Calm - N/A   Scattered Clouds
4:31 AM 17.6 °F - 12.2 °F 79% 29.66 in 7.0 mi Calm Calm - N/A   Clear
4:51 AM 17.6 °F - 12.2 °F 79% 29.65 in 7.0 mi Calm Calm - N/A   Scattered Clouds
5:11 AM 17.6 °F - 10.4 °F 73% 29.66 in 7.0 mi Calm Calm - N/A   Scattered Clouds
5:31 AM 17.6 °F - 10.4 °F 73% 29.67 in 7.0 mi Calm Calm - N/A   Scattered Clouds
5:51 AM 15.8 °F - 10.4 °F 79% 29.65 in 7.0 mi Calm Calm - N/A   Clear
6:11 AM 14.0 °F - 8.6 °F 79% 29.65 in 7.0 mi Calm Calm - N/A   Clear
6:31 AM 14.0 °F - 8.6 °F 79% 29.64 in 7.0 mi Calm Calm - N/A   Clear
6:51 AM 14.0 °F - 8.6 °F 79% 29.64 in 7.0 mi Calm Calm - N/A   Clear
7:12 AM 14.0 °F - 6.8 °F 73% 29.63 in 7.0 mi Calm Calm - N/A   Clear
7:32 AM 12.2 °F 6.1 °F 5.0 °F 73% 29.62 in 7.0 mi WSW 3.5 mph - N/A   Clear
7:51 AM 12.2 °F - 6.8 °F 79% 29.61 in 7.0 mi Calm Calm - N/A   Clear
8:11 AM 12.2 °F - 6.8 °F 79% 29.61 in 7.0 mi Calm Calm - N/A   Clear
8:31 AM 14.0 °F 6.5 °F 6.8 °F 73% 29.61 in 7.0 mi SW 4.6 mph - N/A   Clear
8:51 AM 15.8 °F 10.2 °F 10.4 °F 79% 29.61 in 7.0 mi SW 3.5 mph - N/A   Clear
9:31 AM 19.4 °F 12.8 °F 12.2 °F 74% 29.63 in 7.0 mi WSW 4.6 mph - N/A   Mostly Cloudy
9:51 AM 21.2 °F 14.9 °F 15.8 °F 80% 29.62 in 7.0 mi SW 4.6 mph - N/A   Mostly Cloudy
10:11 AM 26.6 °F 16.8 °F 21.2 °F 80% 29.61 in 10.0 mi West 10.4 mph - N/A   Overcast
10:31 AM 30.2 °F 21.3 °F 21.2 °F 69% 29.61 in 10.0 mi West 10.4 mph - N/A   Mostly Cloudy
10:51 AM 32.0 °F 24.8 °F 21.2 °F 64% 29.60 in 10.0 mi WNW 8.1 mph 16.1 mph N/A   Mostly Cloudy
11:12 AM 32.0 °F 20.8 °F 21.2 °F 64% 29.62 in 10.0 mi West 17.3 mph 25.3 mph N/A   Overcast
11:31 AM 32.0 °F 20.8 °F 21.2 °F 64% 29.60 in 10.0 mi WNW 17.3 mph 27.6 mph N/A   Overcast
11:51 AM 32.0 °F 19.8 °F 19.4 °F 60% 29.60 in 10.0 mi WNW 20.7 mph 28.8 mph N/A   Mostly Cloudy
12:12 PM 32.0 °F 20.8 °F 17.6 °F 55% 29.58 in 10.0 mi West 17.3 mph 26.5 mph N/A   Mostly Cloudy
12:31 PM 32.0 °F 20.8 °F 19.4 °F 60% 29.58 in 10.0 mi West 17.3 mph 26.5 mph N/A   Mostly Cloudy
12:52 PM 32.0 °F 20.8 °F 19.4 °F 60% 29.58 in 10.0 mi West 17.3 mph 31.1 mph N/A   Overcast
1:11 PM 33.8 °F 21.9 °F 14.0 °F 44% 29.58 in 10.0 mi WNW 21.9 mph 32.2 mph N/A   Overcast
1:31 PM 32.0 °F 22.5 °F 14.0 °F 48% 29.58 in 10.0 mi West 12.7 mph 24.2 mph N/A   Mostly Cloudy
1:51 PM 32.0 °F 19.8 °F 10.4 °F 41% 29.59 in 10.0 mi WNW 20.7 mph 29.9 mph N/A   Mostly Cloudy
2:11 PM 28.4 °F 14.7 °F 10.4 °F 47% 29.61 in 10.0 mi NW 21.9 mph 31.1 mph N/A   Overcast
2:31 PM 23.0 °F 7.2 °F 5.0 °F 46% 29.65 in 10.0 mi NW 23.0 mph 35.7 mph N/A   Overcast
2:51 PM 19.4 °F 2.8 °F 3.2 °F 49% 29.67 in 7.0 mi NW 21.9 mph 31.1 mph N/A   Overcast
3:11 PM 17.6 °F 0.9 °F -0.4 °F 45% 29.70 in 10.0 mi NW 20.7 mph 34.5 mph N/A   Overcast
3:31 PM 14.0 °F -2.0 °F -4.0 °F 45% 29.73 in 10.0 mi WNW 16.1 mph 31.1 mph N/A   Overcast
3:51 PM 14.0 °F -2.5 °F -5.8 °F 41% 29.74 in 10.0 mi WNW 17.3 mph 25.3 mph N/A   Overcast
4:11 PM 12.2 °F -6.3 °F -7.6 °F 41% 29.76 in 10.0 mi NW 20.7 mph 31.1 mph N/A   Overcast
4:31 PM 10.4 °F -9.1 °F -7.6 °F 44% 29.79 in 10.0 mi NW 21.9 mph 31.1 mph N/A   Overcast
4:52 PM 8.6 °F -10.0 °F -7.6 °F 48% 29.82 in 5.0 mi WNW 18.4 mph 34.5 mph N/A   Haze
5:12 PM 8.6 °F -7.7 °F -7.6 °F 48% 29.84 in 10.0 mi WNW 13.8 mph 29.9 mph N/A   Overcast
5:31 PM 6.8 °F -12.4 °F -9.4 °F 48% 29.87 in 10.0 mi WNW 18.4 mph 24.2 mph N/A   Overcast
5:51 PM 6.8 °F -12.4 °F -9.4 °F 48% 29.88 in 10.0 mi NW 18.4 mph 27.6 mph N/A   Overcast
6:12 PM 5.0 °F -10.8 °F -9.4 °F 52% 29.90 in 10.0 mi NW 11.5 mph 25.3 mph N/A   Overcast
6:31 PM 5.0 °F -15.7 °F -7.6 °F 56% 29.91 in 10.0 mi NW 20.7 mph 33.4 mph N/A   Overcast
6:51 PM 5.0 °F -12.3 °F -9.4 °F 52% 29.92 in 10.0 mi NW 13.8 mph 27.6 mph N/A   Overcast
7:11 PM 5.0 °F -14.7 °F -9.4 °F 52% 29.94 in 7.0 mi NNW 18.4 mph 24.2 mph N/A   Overcast
7:32 PM 5.0 °F -14.7 °F -9.4 °F 52% 29.96 in 5.0 mi NNW 18.4 mph 27.6 mph N/A   Haze
7:51 PM 5.0 °F -15.2 °F -9.4 °F 52% 29.98 in 7.0 mi NNW 19.6 mph 24.2 mph N/A   Overcast
8:11 PM 5.0 °F -15.2 °F -11.2 °F 47% 29.99 in 10.0 mi NNW 19.6 mph 25.3 mph N/A   Scattered Clouds
8:31 PM 5.0 °F -14.2 °F -11.2 °F 47% 30.01 in 10.0 mi NNW 17.3 mph 25.3 mph N/A   Clear
8:52 PM 3.2 °F -15.9 °F -11.2 °F 51% 30.03 in 10.0 mi NNW 16.1 mph 24.2 mph N/A   Scattered Clouds
9:11 PM 3.2 °F -13.9 °F -11.2 °F 51% 30.05 in 10.0 mi NW 12.7 mph 17.3 mph N/A   Scattered Clouds
9:31 PM 3.2 °F -13.9 °F -11.2 °F 51% 30.06 in 10.0 mi NNW 12.7 mph 25.3 mph N/A   Clear
9:52 PM 3.2 °F -14.6 °F -11.2 °F 51% 30.08 in 10.0 mi NW 13.8 mph 20.7 mph N/A   Clear
10:11 PM 3.2 °F -13.9 °F -11.2 °F 51% 30.08 in 10.0 mi NNW 12.7 mph 19.6 mph N/A   Clear
10:32 PM 3.2 °F -13.9 °F -11.2 °F 51% 30.10 in 10.0 mi NNW 12.7 mph 20.7 mph N/A   Clear
10:51 PM 3.2 °F -11.3 °F -11.2 °F 51% 30.11 in 10.0 mi NW 9.2 mph 16.1 mph N/A   Clear
11:12 PM 1.4 °F -12.5 °F -9.4 °F 61% 30.12 in 10.0 mi NW 8.1 mph - N/A   Scattered Clouds
11:31 PM 1.4 °F -14.5 °F -11.2 °F 56% 30.12 in 10.0 mi NNW 10.4 mph - N/A   Scattered Clouds
11:51 PM 1.4 °F -14.5 °F -11.2 °F 56% 30.12 in 10.0 mi NNW 10.4 mph - N/A   Scattered Clouds